This is the latest recevied weather packets stored in our database for station/object HK2LS-SM. If no packets are shown the sender has not sent any weather packets the latest 10 day(s).
| Time | Temp. | Humidity | Pressure | Rain* | Wind** | Luminosity | Snow |
|---|---|---|---|---|---|---|---|
| 1778220284 | 28.89° C | 77% | 1006.8 hPa | 0 mm | - | - | - |
| 1778217512 | 29.44° C | 77% | 1007.1 hPa | 0 mm | - | - | - |
| 1778216910 | 28.89° C | 77% | 1007.1 hPa | 0 mm | - | - | - |
| 1778216277 | 29.44° C | 76% | 1007.5 hPa | 0 mm | - | - | - |
| 1778215374 | 30° C | 75% | 1007.5 hPa | 0 mm | - | - | - |
| 1778213567 | 30° C | 76% | 1007.5 hPa | 0 mm | - | - | - |
| 1778212062 | 30° C | 75% | 1007.8 hPa | 0 mm | - | - | - |
| 1778210555 | 30.56° C | 73% | 1007.8 hPa | 0 mm | - | - | - |
| 1778210223 | 30.56° C | 73% | 1007.8 hPa | 0 mm | - | - | - |
| 1778209589 | 30.56° C | 73% | 1007.8 hPa | 0 mm | - | - | - |
| 1778207418 | 30° C | 75% | 1007.5 hPa | 0 mm | - | - | - |
| 1778206785 | 30.56° C | 74% | 1007.5 hPa | 0 mm | - | - | - |
| 1778206483 | 30.56° C | 74% | 1007.5 hPa | 0 mm | - | - | - |
| 1778205277 | 30.56° C | 74% | 1007.5 hPa | 0 mm | - | - | - |
| 1778204976 | 30.56° C | 74% | 1007.5 hPa | 0 mm | - | - | - |
| 1778203771 | 30° C | 74% | 1007.1 hPa | 0 mm | - | - | - |
| 1778201662 | 30° C | 74% | 1007.1 hPa | 0 mm | - | - | - |
| 1778200425 | 30° C | 74% | 1006.8 hPa | 0 mm | - | - | - |
| 1778199220 | 30° C | 74% | 1006.8 hPa | 0 mm | - | - | - |
| 1778197318 | 30.56° C | 73% | 1006.4 hPa | 0 mm | - | - | - |
| 1778196716 | 31.11° C | 72% | 1006.1 hPa | 0 mm | - | - | - |
| 1778196081 | 31.11° C | 72% | 1006.1 hPa | 0 mm | - | - | - |
| 1778195478 | 31.11° C | 72% | 1006.1 hPa | 0 mm | - | - | - |
| 1778052958 | 29.44° C | 71% | 1007.1 hPa | 0 mm | - | - | - |
| 1778052657 | 28.89° C | 71% | 1007.1 hPa | 0 mm | - | - | - |
* Rain latest hour (hover to see other rain measurements)
** Current wind speed in m/s (hover to see current wind gust speed)